Weather History for Pascagoula, MS

Change the Weather History Date:

Sunday, June 16, 2013

  Actual Average Record
Temperature  
Mean Temperature 80 °F -  
Max Temperature 91 °F 87 °F 95 °F (2006)
Min Temperature 71 °F 73 °F 63 °F (1961)
Cooling Degree Days 15    
Growing Degree Days 30 (Base 50)    
Moisture  
Dew Point 73 °F    
Average Humidity 87    
Maximum Humidity 100    
Minimum Humidity 59    
Precipitation  
Precipitation 0.00 in - - ()
Sea Level Pressure  
Sea Level Pressure 30.01 in    
Wind  
Wind Speed 1 mph (SSW)    
Max Wind Speed 9 mph    
Max Gust Speed -    
Visibility 5 miles    
Events Fog , Thunderstorm    
Averages and records for this station are not official NWS values.
T = Trace of Precipitation, MM = Missing Value Source: NWS Daily Summary

Daily Weather History Graph

Daily Weather History Graph

Search for Another Location

Airport:

Trip Planner

Search our weather history database for the weather conditions in past years. The results will help you decide how hot, cold, wet, or windy it might be!

Date:

Astronomy

Jun. 16, 2013 Rise Set
Actual Time 5:51 AM CDT 7:58 PM CDT
Civil Twilight 5:24 AM CDT 8:25 PM CDT
Nautical Twilight 4:50 AM CDT 8:59 PM CDT
Astronomical Twilight 4:14 AM CDT 9:35 PM CDT
Moon 12:58 PM CDT (6/16) 12:29 AM CDT (6/16)
Length of Visible Light 15h 01m
Length of Day
14h 06m
Waxing Crescent, 50% of the Moon is Illuminated
Jun 16
Waxing Crescent
Jun 16
First Quarter
Jun 23
Full
Jun 29
Last Quarter
Jul 8
New

Hourly Weather History & Observations

Time (CDT) Temp. Heat Index Dew Point Humidity Pressure Visibility Wind Dir Wind Speed Gust Speed Precip Events Conditions
12:07 AM 75.2 °F - 73.4 °F 94% 30.02 in 2.5 mi Calm Calm - N/A   Clear
12:26 AM 73.4 °F - 73.4 °F 100% 30.02 in 3.0 mi Calm Calm - N/A   Clear
12:53 AM 73.9 °F - 72.0 °F 93% 30.02 in 2.0 mi Calm Calm - N/A   Clear
1:04 AM 73.4 °F - 71.6 °F 94% 30.01 in 1.0 mi Calm Calm - N/A   Clear
1:12 AM 73.4 °F - 71.6 °F 94% 30.01 in 3.0 mi Calm Calm - N/A   Clear
1:22 AM 73.4 °F - 71.6 °F 94% 30.01 in 2.5 mi Calm Calm - N/A   Clear
1:26 AM 73.4 °F - 71.6 °F 94% 30.01 in 0.8 mi Calm Calm - N/A   Clear
1:48 AM 73.4 °F - 71.6 °F 94% 30.00 in 2.5 mi Calm Calm - N/A   Clear
1:53 AM 73.0 °F - 72.0 °F 96% 30.01 in 4.0 mi Calm Calm - N/A   Clear
2:27 AM 73.4 °F - 71.6 °F 94% 29.99 in 1.8 mi Calm Calm - N/A   Clear
2:37 AM 73.4 °F - 71.6 °F 94% 29.99 in 0.8 mi Calm Calm - N/A   Mist
2:53 AM 73.0 °F - 72.0 °F 96% 30.00 in 0.2 mi Calm Calm - N/A Fog Fog
3:17 AM 71.6 °F - 71.6 °F 100% 29.99 in 1.0 mi Calm Calm - N/A   Mist
3:23 AM 71.6 °F - 71.6 °F 100% 30.00 in 2.0 mi Calm Calm - N/A   Scattered Clouds
3:36 AM 71.6 °F - 71.6 °F 100% 29.99 in 1.0 mi Calm Calm - N/A   Mist
3:40 AM 71.6 °F - 71.6 °F 100% 29.99 in 0.2 mi Calm Calm - N/A Fog Fog
3:53 AM 72.0 °F - 71.1 °F 97% 30.00 in 0.5 mi Calm Calm - N/A Fog Fog
3:56 AM 71.6 °F - 71.6 °F 100% 29.99 in 1.8 mi Calm Calm - N/A   Scattered Clouds
4:00 AM 71.6 °F - 69.8 °F 94% 30.00 in 0.8 mi Calm Calm - N/A   Mist
4:05 AM 71.6 °F - 69.8 °F 94% 30.00 in 0.2 mi Calm Calm - N/A Fog Fog
4:20 AM 71.6 °F - 69.8 °F 94% 29.99 in 1.0 mi Calm Calm - N/A   Mist
4:27 AM 71.6 °F - 69.8 °F 94% 30.00 in 1.2 mi Calm Calm - N/A   Scattered Clouds
4:53 AM 72.0 °F - 70.0 °F 93% 30.01 in 1.2 mi Calm Calm - N/A   Clear
5:05 AM 71.6 °F - 71.6 °F 100% 30.01 in 2.0 mi Calm Calm - N/A   Partly Cloudy
5:26 AM 71.6 °F - 69.8 °F 94% 30.01 in 1.0 mi Calm Calm - N/A   Clear
5:30 AM 71.6 °F - 69.8 °F 94% 30.01 in 0.8 mi Calm Calm - N/A   Mist
5:35 AM 71.6 °F - 71.6 °F 100% 30.01 in 0.2 mi Calm Calm - N/A Fog Fog
5:48 AM 71.6 °F - 69.8 °F 94% 30.01 in 1.0 mi Calm Calm - N/A   Mist
5:49 AM 72.0 °F - 70.0 °F 93% 30.02 in 1.0 mi Calm Calm - N/A   Mist
5:52 AM 71.6 °F - 69.8 °F 94% 30.01 in 2.0 mi Calm Calm - N/A   Partly Cloudy
6:04 AM 71.6 °F - 71.6 °F 100% 30.02 in 3.0 mi Calm Calm - N/A   Partly Cloudy
6:12 AM 71.6 °F - 71.6 °F 100% 30.02 in 1.2 mi Calm Calm - N/A   Clear
6:15 AM 71.6 °F - 71.6 °F 100% 30.02 in 0.2 mi Calm Calm - N/A Fog Fog
6:22 AM 71.6 °F - 71.6 °F 100% 30.02 in 0.2 mi Calm Calm - N/A Fog Fog
6:29 AM 73.4 °F - 71.6 °F 94% 30.02 in 1.0 mi Calm Calm - N/A   Mist
6:36 AM 73.4 °F - 71.6 °F 94% 30.02 in 1.8 mi Calm Calm - N/A   Partly Cloudy
6:53 AM 75.0 °F - 73.9 °F 96% 30.04 in 1.8 mi Calm Calm - N/A   Clear
7:00 AM 75.2 °F - 73.4 °F 94% 30.03 in 2.5 mi Calm Calm - N/A   Clear
7:11 AM 77.0 °F - 75.2 °F 94% 30.03 in 3.0 mi Calm Calm - N/A   Clear
7:53 AM 81.0 °F 87.9 °F 77.0 °F 88% 30.05 in 6.0 mi Calm Calm - N/A   Clear
8:53 AM 86.0 °F 95.1 °F 75.0 °F 70% 30.05 in 10.0 mi Calm Calm - N/A   Clear
9:53 AM 87.1 °F 93.6 °F 72.0 °F 61% 30.06 in 10.0 mi Calm Calm - N/A   Scattered Clouds
10:53 AM 87.1 °F 94.5 °F 73.0 °F 63% 30.05 in 10.0 mi South 3.5 mph - N/A   Mostly Cloudy
11:53 AM 89.1 °F 97.0 °F 73.0 °F 59% 30.03 in 10.0 mi Variable 3.5 mph - N/A   Mostly Cloudy
12:53 PM 86.0 °F 95.1 °F 75.0 °F 70% 30.03 in 10.0 mi SW 5.8 mph - N/A   Overcast
1:08 PM 86.0 °F 95.1 °F 75.2 °F 70% 30.03 in 10.0 mi South 4.6 mph - N/A   Overcast
1:27 PM 87.8 °F 97.6 °F 75.2 °F 66% 30.03 in 10.0 mi Variable 3.5 mph - N/A Thunderstorm Thunderstorm
1:53 PM 82.9 °F 88.8 °F 73.0 °F 72% 30.02 in 10.0 mi NE 9.2 mph - N/A Thunderstorm Thunderstorm
2:13 PM 82.4 °F 88.2 °F 73.4 °F 74% 30.02 in 10.0 mi East 5.8 mph - N/A   Overcast
2:53 PM 88.0 °F 97.5 °F 75.0 °F 65% 30.01 in 10.0 mi Calm Calm - N/A   Mostly Cloudy
3:53 PM 87.1 °F 97.3 °F 75.9 °F 69% 30.00 in 10.0 mi Variable 4.6 mph - N/A Thunderstorm Scattered Clouds
4:26 PM 84.2 °F 94.1 °F 77.0 °F 79% 29.99 in 10.0 mi SSW 4.6 mph - N/A   Partly Cloudy
4:53 PM 89.1 °F 101.4 °F 77.0 °F 67% 29.99 in 10.0 mi Variable 4.6 mph - N/A   Clear
5:53 PM 86.0 °F 95.1 °F 75.0 °F 70% 30.00 in 10.0 mi SW 5.8 mph - N/A   Clear
6:53 PM 82.9 °F 90.8 °F 75.9 °F 79% 30.00 in 10.0 mi SSW 3.5 mph - N/A   Clear
7:53 PM 84.0 °F 92.6 °F 75.9 °F 76% 30.00 in 10.0 mi SSW 3.5 mph - N/A   Partly Cloudy
8:53 PM 82.9 °F 90.8 °F 75.9 °F 79% 29.99 in 10.0 mi SSW 4.6 mph - N/A   Clear
9:37 PM 84.2 °F 94.1 °F 77.0 °F 79% 29.99 in 10.0 mi SSW 6.9 mph - N/A   Mostly Cloudy
9:53 PM 84.0 °F 92.6 °F 75.9 °F 76% 30.01 in 10.0 mi SW 5.8 mph - N/A   Mostly Cloudy
10:12 PM 84.2 °F 94.1 °F 77.0 °F 79% 30.00 in 10.0 mi SW 6.9 mph - N/A   Mostly Cloudy
10:53 PM 82.9 °F 90.8 °F 75.9 °F 79% 30.01 in 10.0 mi SSW 5.8 mph - N/A   Overcast
11:53 PM 82.9 °F 90.8 °F 75.9 °F 79% 30.01 in 10.0 mi WSW 3.5 mph - N/A   Partly Cloudy